COSMOS 2491 DEB, 57557

Orbit data source: Space-Track

COSMOS 2491 DEB, 57557 is space debris in LEO originally from a launch on Wed, 25 Dec 2013 UTC launched from the Plesetsk Missile And Space Complex (PKMTR). Debris objects in space refer to the collection of defunct objects orbiting the Earth. Examples of debris include non-operational satellites, rocket bodies, and fragments generated from explosions, collisions, or faulty payload assembly.

Loading next visibility...
Identifier
57557, 2013-076AU
Orbit
LEO
Country
Flag of CISCIS
Related business
Manufacturer
TsNIIKhM
Mission
Spacecraft
Bus & Motor
Unknown
Mass
Unknown
Launch date (UTC)
2013-12-25 (12 years ago)
Launch vehicle
Unknown
Launch site
Plesetsk Missile And Space Complex (PKMTR)
Object type
Payload
Rocket body
Debris
Shape & HBR
Unknown shape, 0.1 m
Radar Cross Section
Small (<0.1 m²)

Expand to show TLE details & history
Last TLE update: 2 days ago

TLE from 2 days ago
0 COSMOS 2491 DEB
1 57557U 13076AU  25284.84347274  .00001010  00000-0  68407-2 0  9995
2 57557  82.4837 322.7796 0070616 187.2749 172.7315 12.46342162110231
Epoch: 2025-10-11T20:14Z
TLE epoch observation values (Epoch: 2025-10-11T20:14:36.044Z)
Latitude
0.00002°
Longitude
-1.53972°
Altitude
1,537.596 km
Speed
7.073 km/s
True Right ascension
21h 31m 07s
True Declination
0° 00' 00"
Sunlit
Object was in daylight at epoch
Visualization orbit readout
Latitude
Unknown
Longitude
Unknown
Altitude
Unknown
Speed
Unknown
Apparent Right ascension
Unknown
Apparent Declination
Unknown
Sunlit
N/A
Visualization observer readout
Local Sidereal Time
21:24:31
Azimuth
Unknown
Elevation
Unknown
Doppler factor
Unknown
Orbital elements
Apogee altitude
1,532.65 km
Perigee altitude
1,421.708 km
Semi-major axis
7,855.316 km
Eccentricity
0.00706
Inclination
82.4837°
RAAN
322.7796°
Arg. of periapsis
187.2749°
True anomaly
172.83299°
Mean anomaly
172.7315°
Eccentric anomaly
172.78233°
Mean motion
3.11744 °/min
Orbital period
115.48 mins
BSTAR
0.0068407
Loading maneuver chart data...
Computing Atmospheric mass density...
Loading historical data...
Loading historical data...
Loading historical data...
Loading historical data...
Loading historical data...
Loading historical data...
Loading historical data...

Documentation

Showing up to 5 results
|